Printer-friendly version

IAU Minor Planet Center

Minor Planet Center

MPEC 2001-N36: 2001 NJ6

The following Minor Planet Electronic Circular may be linked-to from your own Web pages, but must not otherwise be redistributed electronically.


Read MPEC 2001-N35 Read MPEC 2001-O01


M.P.E.C. 2001-N36                                Issued 2001 July 15, 17:16 UT

     The Minor Planet Electronic Circulars contain information on unusual
         minor planets and routine data on comets.  They are published
   on behalf of Commission 20 of the International Astronomical Union by the
          Minor Planet Center, Smithsonian Astrophysical Observatory,
                          Cambridge, MA 02138, U.S.A.

             Prepared using the Tamkin Foundation Computer Network

                              MPC@CFA.HARVARD.EDU
          URL http://cfa-www.harvard.edu/iau/mpc.html  ISSN 1523-6714

                                   2001 NJ6

Observations:
     K01N06J* C2001 07 13.27291 20 23 43.17 -20 23 01.1          19.9        644
     K01N06J  C2001 07 13.28387 20 23 43.77 -20 23 10.8          19.8        644
     K01N06J  C2001 07 13.29479 20 23 44.35 -20 23 19.9          19.7        644
     K01N06J  C2001 07 14.00353 20 24 27.74 -20 33 36.7                      557
     K01N06J  C2001 07 14.00515 20 24 27.88 -20 33 37.9                      557
     K01N06J  C2001 07 14.00678 20 24 27.95 -20 33 40.2                      557
     K01N06J  C2001 07 14.00837 20 24 28.10 -20 33 41.1          17.2 R      046
     K01N06J  C2001 07 14.00987 20 24 28.23 -20 33 43.7                      046
     K01N06J  C2001 07 14.01249 20 24 28.40 -20 33 44.9                      046
     K01N06J  C2001 07 14.37176 20 24 50.73 -20 38 55.7          20.0        644
     K01N06J  C2001 07 14.38456 20 24 51.39 -20 39 06.8          20.0        644
     K01N06J  C2001 07 14.39498 20 24 51.92 -20 39 16.0          20.0        644
     K01N06J  C2001 07 14.61938 20 25 05.71 -20 41 59.6          18.4 R      474
     K01N06J  C2001 07 14.62331 20 25 05.91 -20 42 03.0          18.4 R      474
     K01N06J  C2001 07 14.62846 20 25 06.20 -20 42 07.3          18.5 R      474
     K01N06J  C2001 07 14.63234 20 25 06.39 -20 42 10.8          18.3 R      474
     K01N06J  C2001 07 14.97329 20 25 28.42 -20 47 50.7                      557
     K01N06J  C2001 07 14.97804 20 25 28.67 -20 47 55.1                      557

Observer details:
046 Klet.  Observers J. Ticha, M. Tichy, P. Jelinek.  0.57-m f/5.2 reflector
    + CCD.
474 Mount John Observatory, Lake Tekapo.  Observer A. C. Gilmore.  1.0-m f/7.7
    reflector + CCD.
557 Ondrejov.  Observer L. Sarounova.  0.65-m f/3.6 reflector + CCD.
644 Palomar Mountain/NEAT.  Observers E. F. Helin, S. Pravdo, K. Lawrence,
    M. Hicks, E. Hovland, T. Bickler, J. Schroeder, L. Scherr, R. Thicksten,
    A. Deetz.  1.2-m Schmidt + CCD.

Orbital elements:
2001 NJ6
Epoch 2001 July 10.0 TT = JDT 2452100.5                 Williams
M 348.10348              (2000.0)            P               Q
n   0.30516366     Peri.  210.81829     +0.78632800     +0.61218334
a   2.1849802      Node   111.20240     -0.54709217     +0.75253334
e   0.4129894      Incl.    5.11904     -0.28701644     +0.24274499
P   3.23           H   20.2           G   0.15
From 18 observations 2001 July 13-14.

Ephemeris:
2001 NJ6                 a,e,i = 2.18, 0.41, 5                   q = 1.2826
Date    TT    R. A. (2000) Decl.     Delta      r     Elong.  Phase     V
2001 07 10    20 20.28   -19 37.7    0.329    1.337   165.0    11.3    19.1
2001 07 20    20 30.67   -22 05.2    0.299    1.313   172.2     6.0    18.6
2001 07 30    20 41.36   -24 50.6    0.282    1.296   173.6     5.0    18.4
2001 08 09    20 53.24   -27 25.4    0.277    1.286   167.4     9.9    18.6
2001 08 19    21 06.73   -29 20.3    0.284    1.283   160.3    15.4    18.9
2001 08 29    21 22.05   -30 14.1    0.301    1.287   153.8    20.3    19.2
2001 09 08    21 38.87   -30 01.3    0.329    1.299   148.2    24.1    19.5
2001 09 18    21 56.52   -28 48.9    0.367    1.317   143.2    27.2    19.8
2001 09 28    22 14.58   -26 49.2    0.416    1.343   138.6    29.6    20.2
2001 10 08    22 32.70   -24 17.1    0.475    1.373   134.2    31.4    20.6
2001 10 18    22 50.67   -21 25.3    0.545    1.409   129.8    32.9    21.0
2001 10 28    23 08.53   -18 23.0    0.626    1.449   125.4    34.0    21.4
2001 11 07    23 26.26   -15 17.2    0.717    1.493   120.9    34.7    21.8

Gareth V. Williams           (C) Copyright 2001 MPC           M.P.E.C. 2001-N36

Read MPEC 2001-N35 Read MPEC 2001-O01


Our Web policy. Index to the CBAT/MPC/ICQ pages.


Valid HTML 4.01!